Location: Worth Mountain WMA
(34.9569°N, 81.4819°W)
Time: 19:32:33
(UTC-05:00)

Amateur Radio Satellites - All Passes

Search period start: 27 February 2015 19:02
Search period end: 28 February 2015 19:02
Location: Worth Mountain WMA, 34.9569°N, 81.4819°W

Satellite Date Start Highest point End Downlink Frequencies (MHz)
Time Altitude Azimuth
PHONESAT 2.4 27 Feb 19:29:15 19:32:50 60° 153° (SSE) 19:36:26 2401.200-2431.200
DOVE 4 27 Feb 19:32:33 19:35:19 15° 68° (ENE) 19:38:16 437.250
O/OREOS (USA 219) 27 Feb 19:36:21 19:40:12 26° 62° (ENE) 19:44:05 437.305
HO-68 27 Feb 19:38:28 19:44:52 38° 67° (ENE) 19:51:23 435.675
VERMONT LUNAR 27 Feb 19:50:17 19:53:44 55° 342° (NNW) 19:57:11 437.305
AIST 2 27 Feb 19:50:53 19:54:31 26° 307° (NW) 19:58:09 435.215
CUBESAT XI-V 27 Feb 19:52:30 19:56:28 27° 289° (WNW) 20:00:19 437.345
BRITE-PL 27 Feb 19:53:35 19:59:06 55° 75° (ENE) 20:04:33 437.365/2234.400
AIST 1 27 Feb 20:02:22 20:05:46 21° 270° (W) 20:09:02
COMPASS 1 27 Feb 20:03:05 20:06:19 23° 71° (ENE) 20:09:40 437.405
AAUSAT CUBESAT 2 27 Feb 20:03:32 20:06:31 20° 71° (ENE) 20:09:38 437.432
CINEMA 3 27 Feb 20:06:00 20:08:55 17° 69° (ENE) 20:11:59 145.822/145.860
STRAND 1 27 Feb 20:12:24 20:17:00 33° 289° (WNW) 20:21:30 437.568
GOMX 1 27 Feb 20:16:12 20:21:35 61° 76° (ENE) 20:26:49 467.674
CANX-2 27 Feb 20:22:01 20:26:11 66° 76° (ENE) 20:30:23 2200.000
SEEDS 27 Feb 20:24:25 20:28:28 52° 75° (ENE) 20:32:34 437.485
PCSat 27 Feb 20:40:12 20:44:45 29° 109° (ESE) 20:49:25 145.827
CUTE 1.7 + AOD 2 27 Feb 20:41:06 20:45:19 79° 257° (WSW) 20:49:33 437.475
CUBEBUG 2 27 Feb 20:48:46 20:52:27 25° 72° (ENE) 20:56:09 437.445
Oscar 11 27 Feb 21:05:09 21:09:19 52° 75° (ENE) 21:13:31 145.826/435.025
DOVE 4 27 Feb 21:07:31 21:12:43 58° 260° (W) 21:17:43 437.250
PHONESAT 2.4 27 Feb 21:07:58 21:11:26 40° 348° (NNW) 21:14:54 2401.200-2431.200
AISAT 27 Feb 21:13:41 21:15:28 13° 67° (ENE) 21:17:30 437.250
O/OREOS (USA 219) 27 Feb 21:15:47 21:19:34 25° 257° (WSW) 21:23:12 437.305
DX 1 27 Feb 21:23:32 21:27:39 41° 73° (ENE) 21:31:48 434.975-435.025
VELOX 1 27 Feb 21:23:58 21:26:35 16° 68° (ENE) 21:29:25 145.980
HO-68 27 Feb 21:26:07 21:32:36 36° 263° (W) 21:39:00 435.675
VERMONT LUNAR 27 Feb 21:28:53 21:32:03 31° 359° (N) 21:35:12 437.305
DELFI C3 27 Feb 21:30:21 21:34:23 83° 78° (ENE) 21:38:26 145.870
BRITE-PL 27 Feb 21:34:02 21:37:55 18° 269° (W) 21:41:31 437.365/2234.400
AAUSAT CUBESAT 2 27 Feb 21:38:32 21:42:03 26° 264° (W) 21:45:32 437.432
COMPASS 1 27 Feb 21:38:38 21:41:59 23° 265° (W) 21:45:15 437.405
CINEMA 3 27 Feb 21:41:09 21:45:51 45° 261° (W) 21:50:23 145.822/145.860
ZACube-1 27 Feb 21:42:32 21:46:58 70° 77° (ENE) 21:51:18 437.345
FUNcube-1 27 Feb 21:42:33 21:46:58 68° 76° (ENE) 21:51:18 145.935
GONETS M04 27 Feb 21:43:11 21:50:56 39° 88° (E) 21:58:50
UWE-3 27 Feb 21:54:00 21:58:31 69° 259° (W) 22:02:56 435.000/436.395/437.385
GOMX 1 27 Feb 21:57:00 22:00:06 15° 270° (W) 22:02:49 467.674
UKube-1 27 Feb 21:57:09 22:01:30 82° 257° (WSW) 22:05:53 .
TIGRISAT 27 Feb 22:12:14 22:15:09 18° 94° (E) 22:18:13 435.000
HUMSAT D 27 Feb 22:12:28 22:16:42 79° 77° (ENE) 22:20:54 437.325/437.525
PCSat 27 Feb 22:23:13 22:28:06 33° 304° (NW) 22:32:58 145.827
ANTELSAT 27 Feb 22:23:24 22:26:58 26° 96° (E) 22:30:37 437.575/2403.000
CUBEBUG 2 27 Feb 22:25:14 22:29:06 26° 264° (W) 22:32:49 437.445
50 SAT 27 Feb 22:44:27 22:48:25 57° 260° (W) 22:52:21 437.505
Oscar 11 27 Feb 22:44:42 22:45:54 11° 270° (W) 22:46:47 145.826/435.025
QB50P1 27 Feb 22:45:22 22:48:48 24° 95° (E) 22:52:18 145.935-145.965
PHONESAT 2.4 27 Feb 22:47:01 22:50:22 34° 6° (N) 22:53:42 2401.200-2431.200
AISAT 27 Feb 22:47:16 22:51:40 54° 260° (W) 22:56:06 437.250
QB50P2 27 Feb 22:47:53 22:51:28 27° 96° (E) 22:55:05 145.880/145.840
VELOX 1 27 Feb 22:58:38 23:02:53 41° 262° (W) 23:07:07 145.980
ESTCUBE 1 27 Feb 23:01:17 23:05:48 88° 266° (W) 23:10:21 437.505/2401.250
DX 1 27 Feb 23:01:37 23:04:08 14° 268° (W) 23:06:27 434.975-435.025
CUBEBUG 1 27 Feb 23:02:19 23:06:45 87° 78° (ENE) 23:11:13 437.445
DUCHIFAT 1 27 Feb 23:05:39 23:09:39 42° 99° (E) 23:13:39 145.980
VERMONT LUNAR 27 Feb 23:07:00 23:10:24 49° 16° (NNE) 23:13:46 437.305
BUGSAT 1 27 Feb 23:12:55 23:16:48 37° 98° (E) 23:20:38 437.445
UNISAT 6 27 Feb 23:21:04 23:25:18 62° 285° (WNW) 23:29:34 437.425
POLYITAN 1 27 Feb 23:21:46 23:26:00 72° 102° (ESE) 23:30:12 437.675
POPSAT HIP 1 27 Feb 23:24:01 23:28:15 75° 102° (ESE) 23:32:27 437.405
RS-15 27 Feb 23:27:24 23:37:54 57° 112° (ESE) 23:48:33 29.354- 29.394
CUSAT 1 27 Feb 23:28:53 23:33:53 22° 94° (E) 23:38:19 437.405
GONETS M04 27 Feb 23:39:45 23:47:47 39° 286° (WNW) 23:55:41
SPROUT 27 Feb 23:47:39 23:51:57 66° 76° (ENE) 23:56:16 437.525
TIGRISAT 27 Feb 23:48:14 23:52:00 30° 288° (WNW) 23:55:44 435.000
NANOSAT C BR1 27 Feb 23:48:37 23:52:45 53° 285° (WNW) 23:56:50 145.865
SWISSCUBE 27 Feb 23:50:39 23:50:58 10° 65° (ENE) 23:51:36 437.505
BEESAT 27 Feb 23:58:38 00:00:11 12° 65° (ENE) 00:02:01 436.000
ANTELSAT 28 Feb 00:00:20 00:03:41 22° 289° (WNW) 00:06:58 437.575/2403.000
TISAT 1 28 Feb 00:03:19 00:07:36 87° 257° (WSW) 00:11:55 437.305
DANDE 28 Feb 00:20:26 00:27:50 55° 96° (E) 00:33:38 436.750
QB50P1 28 Feb 00:21:15 00:24:37 22° 289° (WNW) 00:27:51 145.935-145.965
ITUPSAT 1 28 Feb 00:21:48 00:25:17 21° 69° (ENE) 00:28:54 437.325
QB50P2 28 Feb 00:24:02 00:27:15 21° 290° (WNW) 00:30:21 145.880/145.840
PHONESAT 2.4 28 Feb 00:25:29 00:29:07 80° 22° (NNE) 00:32:43 2401.200-2431.200
DUCHIFAT 1 28 Feb 00:43:00 00:45:11 14° 292° (WNW) 00:47:10 145.980
VERMONT LUNAR 28 Feb 00:45:03 00:48:17 36° 211° (SSW) 00:51:28 437.305
BUGSAT 1 28 Feb 00:49:36 00:52:00 15° 292° (WNW) 00:54:12 437.445
CUSAT 1 28 Feb 01:09:56 01:16:46 48° 280° (W) 01:22:00 437.405
SO-50 28 Feb 01:18:53 01:21:13 14° 109° (ESE) 01:23:48 436.795
SWISSCUBE 28 Feb 01:23:32 01:28:17 75° 258° (WSW) 01:33:06 437.505
BEESAT 28 Feb 01:32:50 01:37:33 65° 259° (W) 01:42:19 436.000
ITAMSAT 1 28 Feb 01:38:44 01:41:40 16° 91° (E) 01:44:52 435.822/435.867
RS-15 28 Feb 01:40:44 01:50:46 39° 314° (NW) 02:00:46 29.354- 29.394
Oscar 19 28 Feb 01:45:50 01:50:56 63° 101° (E) 01:56:00 437.125/150
ITUPSAT 1 28 Feb 01:58:37 02:03:00 34° 263° (W) 02:07:20 437.325
PHONESAT 2.4 28 Feb 02:04:38 02:07:19 19° 216° (SW) 02:09:56 2401.200-2431.200
DANDE 28 Feb 02:05:41 02:11:14 22° 285° (WNW) 02:15:41 436.750
Gurwin Techsat 1B 28 Feb 02:30:23 02:35:21 39° 98° (E) 02:40:20 435.225
KKS-1 28 Feb 02:35:24 02:39:53 72° 258° (WSW) 02:44:23 437.445
BEESAT 3 28 Feb 02:35:35 02:38:38 20° 51° (NE) 02:41:45 437.485
AO-7 28 Feb 02:48:49 02:49:22 10° 86° (E) 02:50:49 29.400- 29.500
STARS 28 Feb 02:49:04 02:53:31 80° 258° (WSW) 02:57:58 437.465
SO-50 28 Feb 02:56:54 03:01:20 50° 303° (WNW) 03:05:57 436.795
HORYU 2 28 Feb 02:57:02 02:59:43 16° 93° (E) 03:02:36 437.375
BEESAT 2 28 Feb 02:57:10 03:00:47 28° 54° (NE) 03:04:23 435.950
ITAMSAT 1 28 Feb 03:16:29 03:21:34 52° 287° (WNW) 03:26:35 435.822/435.867
JUGNU 28 Feb 03:22:27 03:25:29 14° 169° (S) 03:28:36 437.505
MOZHAYETS 4 28 Feb 03:26:19 03:28:59 16° 68° (ENE) 03:31:51
Oscar 19 28 Feb 03:27:11 03:29:49 14° 295° (WNW) 03:32:12 437.125/150
YUBILEINY 28 Feb 03:44:43 03:53:28 63° 80° (E) 04:02:12 435.215
RS-15 28 Feb 04:02:50 04:07:46 13° 346° (NNW) 04:12:27 29.354- 29.394
Gurwin Techsat 1B 28 Feb 04:11:00 04:15:07 22° 292° (WNW) 04:19:04 435.225
BEESAT 3 28 Feb 04:13:08 04:16:49 31° 247° (WSW) 04:20:24 437.485
AIST 2 28 Feb 04:15:03 04:19:19 76° 60° (ENE) 04:23:30 435.215
M-CUBED/EXP-1 PRIME 28 Feb 04:16:30 04:19:37 38° 256° (WSW) 04:22:45 437.505
JAS-2 28 Feb 04:19:21 04:26:24 45° 97° (E) 04:33:53 435.910
AUBIESAT-1 28 Feb 04:21:06 04:24:12 38° 257° (WSW) 04:27:20 437.475
HORYU 2 28 Feb 04:32:26 04:36:34 37° 287° (WNW) 04:40:39 437.375
AO-7 28 Feb 04:35:25 04:43:43 73° 105° (ESE) 04:51:59 29.400- 29.500
BEESAT 2 28 Feb 04:35:39 04:38:50 21° 249° (WSW) 04:41:53 435.950
MOZHAYETS 4 28 Feb 05:01:37 05:05:56 42° 262° (W) 05:10:15
SRMSAT 28 Feb 05:06:26 05:09:39 15° 170° (S) 05:12:56 437.500
JUGNU 28 Feb 05:09:49 05:13:49 18° 179° (S) 05:17:49 437.505
CUBESAT XI-V 28 Feb 05:16:12 05:19:17 18° 69° (ENE) 05:22:33 437.345
PCSat 28 Feb 05:32:22 05:34:55 14° 46° (NE) 05:37:43 145.827
PRISM 28 Feb 05:39:28 05:43:09 33° 72° (ENE) 05:46:56 437.425
YUBILEINY 28 Feb 05:42:54 05:49:42 24° 276° (W) 05:56:07 435.215
STRAND 1 28 Feb 05:46:27 05:50:37 26° 69° (ENE) 05:54:54 437.568
JAS-2 28 Feb 06:04:42 06:11:16 35° 291° (WNW) 06:18:02 435.910
Cubesat XI-IV 28 Feb 06:20:02 06:25:10 45° 99° (E) 06:30:17 437.490
RS-15 28 Feb 06:20:40 06:26:56 16° 23° (NNE) 06:33:47 29.354- 29.394
AO-7 28 Feb 06:29:39 06:35:50 23° 301° (WNW) 06:41:42 29.400- 29.500
CUTE-I 28 Feb 06:29:49 06:35:05 56° 100° (E) 06:40:20 437.470
AIST 1 28 Feb 06:51:29 06:54:19 18° 89° (E) 06:57:20
CUBESAT XI-V 28 Feb 06:52:07 06:56:29 38° 263° (W) 07:00:52 437.345
SRMSAT 28 Feb 06:54:09 06:58:09 18° 180° (S) 07:02:08 437.500
JUGNU 28 Feb 06:58:46 07:02:10 15° 189° (S) 07:05:30 437.505
PCSat 28 Feb 07:13:41 07:19:08 83° 243° (WSW) 07:24:32 145.827
PRISM 28 Feb 07:16:12 07:18:49 16° 267° (W) 07:21:16 437.425
STRAND 1 28 Feb 07:25:09 07:29:43 31° 264° (W) 07:34:14 437.568
GONETS M04 28 Feb 07:58:59 08:03:26 15° 63° (ENE) 08:08:30
Cubesat XI-IV 28 Feb 08:01:02 08:04:59 20° 293° (WNW) 08:08:43 437.490
BRITE-PL 28 Feb 08:03:54 08:07:00 19° 91° (E) 08:10:07 437.365/2234.400
CUTE-I 28 Feb 08:11:21 08:14:45 17° 294° (WNW) 08:17:55 437.470
CANX-2 28 Feb 08:12:11 08:14:30 15° 92° (E) 08:17:01 2200.000
SEEDS 28 Feb 08:14:34 08:15:46 11° 90° (E) 08:17:16 437.485
GOMX 1 28 Feb 08:23:20 08:26:25 19° 92° (E) 08:29:32 467.674
AIST 1 28 Feb 08:27:57 08:31:47 30° 283° (WNW) 08:35:37
CUTE 1.7 + AOD 2 28 Feb 08:30:26 08:33:43 22° 94° (E) 08:37:06 437.475
RS-15 28 Feb 08:32:05 08:43:07 51° 52° (NE) 08:54:42 29.354- 29.394
ISS 28 Feb 08:36:13 08:37:20 12° 128° (SE) 08:38:35 145.825
SRMSAT 28 Feb 08:43:24 08:46:38 15° 190° (S) 08:49:47 437.500
HO-68 28 Feb 08:56:30 09:03:29 54° 101° (E) 09:10:30 435.675
Oscar 11 28 Feb 08:57:51 08:59:28 12° 90° (E) 09:01:21 145.826/435.025
TIGRISAT 28 Feb 09:09:36 09:11:14 12° 68° (ENE) 09:13:05 435.000
DOVE 4 28 Feb 09:10:52 09:15:00 47° 98° (E) 09:19:00 437.250
DELFI C3 28 Feb 09:15:05 09:17:19 15° 92° (E) 09:19:45 145.870
ANTELSAT 28 Feb 09:20:22 09:23:09 17° 69° (ENE) 09:26:02 437.575/2403.000
AAUSAT CUBESAT 2 28 Feb 09:24:17 09:28:26 59° 100° (E) 09:32:35 437.432
COMPASS 1 28 Feb 09:24:34 09:28:46 70° 101° (E) 09:32:57 437.405
FUNcube-1 28 Feb 09:35:51 09:38:16 15° 92° (E) 09:40:50 145.935
ZACube-1 28 Feb 09:35:59 09:38:28 16° 92° (E) 09:41:07 437.345
QB50P1 28 Feb 09:36:34 09:38:34 13° 68° (ENE) 09:40:46 145.935-145.965
QB50P2 28 Feb 09:39:04 09:41:22 15° 69° (ENE) 09:43:51 145.880/145.840
CINEMA 3 28 Feb 09:39:43 09:43:48 52° 99° (E) 09:47:51 145.822/145.860
BRITE-PL 28 Feb 09:41:39 09:45:43 31° 289° (WNW) 09:49:29 437.365/2234.400
O/OREOS (USA 219) 28 Feb 09:44:38 09:49:04 56° 107° (ESE) 09:53:34 437.305
CANX-2 28 Feb 09:46:42 09:50:38 37° 287° (WNW) 09:54:33 2200.000
SEEDS 28 Feb 09:47:51 09:51:56 47° 285° (WNW) 09:56:00 437.485
UWE-3 28 Feb 09:47:54 09:51:27 27° 96° (E) 09:55:03 435.000/436.395/437.385
UKube-1 28 Feb 09:49:00 09:52:16 21° 94° (E) 09:55:38 .
GONETS M04 28 Feb 09:52:56 10:01:44 89° 82° (E) 10:10:33
DUCHIFAT 1 28 Feb 09:55:39 09:58:54 22° 71° (ENE) 10:02:15 145.980
BUGSAT 1 28 Feb 10:00:39 10:03:35 19° 70° (ENE) 10:06:40 437.445
GOMX 1 28 Feb 10:00:52 10:04:40 28° 289° (WNW) 10:08:15 467.674
HUMSAT D 28 Feb 10:01:27 10:03:54 16° 92° (E) 10:06:31 437.325/437.525
CUTE 1.7 + AOD 2 28 Feb 10:06:06 10:09:37 25° 288° (WNW) 10:13:03 437.475
ISS 28 Feb 10:10:20 10:13:28 50° 320° (NW) 10:16:37 145.825
POLYITAN 1 28 Feb 10:11:51 10:15:44 35° 73° (ENE) 10:19:41 437.675
POPSAT HIP 1 28 Feb 10:13:47 10:17:42 36° 73° (ENE) 10:21:40 437.405
UNISAT 6 28 Feb 10:16:39 10:21:07 77° 76° (ENE) 10:25:30 437.425
CUBEBUG 2 28 Feb 10:19:01 10:23:11 86° 102° (ESE) 10:27:21 437.445
50 SAT 28 Feb 10:27:02 10:30:03 21° 95° (E) 10:33:10 437.505
Oscar 11 28 Feb 10:31:49 10:35:59 46° 285° (WNW) 10:40:07 145.826/435.025
NANOSAT C BR1 28 Feb 10:37:41 10:41:57 72° 76° (ENE) 10:46:14 145.865
AISAT 28 Feb 10:41:47 10:45:52 36° 97° (E) 10:49:57 437.250
TIGRISAT 28 Feb 10:43:16 10:47:38 53° 260° (W) 10:51:55 435.000
RS-15 28 Feb 10:44:46 10:55:31 44° 250° (WSW) 11:06:27 29.354- 29.394
HO-68 28 Feb 10:45:02 10:50:52 26° 296° (WNW) 10:56:28 435.675
DELFI C3 28 Feb 10:48:57 10:52:41 34° 287° (WNW) 10:56:23 145.870
DOVE 4 28 Feb 10:50:41 10:52:23 12° 293° (WNW) 10:53:50 437.250
DX 1 28 Feb 10:51:06 10:55:27 64° 285° (WNW) 10:59:44 434.975-435.025
VELOX 1 28 Feb 10:52:31 10:56:48 47° 99° (E) 11:01:05 145.980
ANTELSAT 28 Feb 10:55:34 10:59:43 36° 262° (W) 11:03:46 437.575/2403.000
CUBEBUG 1 28 Feb 10:55:36 10:58:52 21° 94° (E) 11:02:13 437.445
ESTCUBE 1 28 Feb 10:58:02 11:01:45 25° 95° (E) 11:05:32 437.505/2401.250
DANDE 28 Feb 11:09:50 11:10:36 11° 71° (ENE) 11:11:29 436.750
QB50P1 28 Feb 11:09:59 11:14:06 45° 261° (W) 11:18:14 145.935-145.965
FUNcube-1 28 Feb 11:11:01 11:14:46 33° 287° (WNW) 11:18:29 145.935
ZACube-1 28 Feb 11:11:15 11:14:59 32° 287° (WNW) 11:18:41 437.345
QB50P2 28 Feb 11:12:55 11:16:59 41° 262° (W) 11:21:02 145.880/145.840
CINEMA 3 28 Feb 11:19:44 11:20:37 10° 293° (WNW) 11:21:14 145.822/145.860
UKube-1 28 Feb 11:24:43 11:28:27 27° 289° (WNW) 11:32:05 .
UWE-3 28 Feb 11:24:52 11:27:52 19° 289° (WNW) 11:30:45 435.000/436.395/437.385
O/OREOS (USA 219) 28 Feb 11:26:44 11:28:57 13° 304° (NW) 11:30:56 437.305
DUCHIFAT 1 28 Feb 11:31:00 11:34:39 26° 264° (W) 11:38:14 145.980
SO-50 28 Feb 11:31:17 11:36:11 59° 58° (ENE) 11:41:02 436.795
BUGSAT 1 28 Feb 11:35:05 11:38:53 31° 263° (W) 11:42:41 437.445
HUMSAT D 28 Feb 11:36:08 11:39:49 32° 287° (WNW) 11:43:28 437.325/437.525
SPROUT 28 Feb 11:39:19 11:41:38 15° 92° (E) 11:44:10 437.525
POLYITAN 1 28 Feb 11:49:01 11:51:49 16° 267° (W) 11:54:27 437.675
POPSAT HIP 1 28 Feb 11:51:03 11:53:46 16° 268° (W) 11:56:18 437.405
TISAT 1 28 Feb 11:52:31 11:55:27 19° 93° (E) 11:58:30 437.305
GONETS M04 28 Feb 11:52:50 11:57:36 15° 279° (W) 12:01:42
CUSAT 1 28 Feb 11:53:54 11:56:29 67° 261° (W) 11:59:07 437.405
50 SAT 28 Feb 12:01:55 12:05:01 22° 289° (WNW) 12:08:02 437.505
AISAT 28 Feb 12:19:13 12:22:14 18° 291° (WNW) 12:25:05 437.250
VELOX 1 28 Feb 12:30:40 12:33:01 14° 293° (WNW) 12:35:10 145.980
CUBEBUG 1 28 Feb 12:31:26 12:35:17 29° 288° (WNW) 12:39:01 437.445
ESTCUBE 1 28 Feb 12:34:47 12:38:35 26° 289° (WNW) 12:42:17 437.505/2401.250
ITAMSAT 1 28 Feb 12:53:39 12:57:02 18° 67° (ENE) 13:00:38 435.822/435.867
Oscar 19 28 Feb 12:59:21 13:04:27 65° 74° (ENE) 13:09:33 437.125/150
SO-50 28 Feb 13:13:39 13:16:19 14° 251° (WSW) 13:18:43 436.795
SPROUT 28 Feb 13:13:57 13:17:57 38° 287° (WNW) 13:21:54 437.525
SWISSCUBE 28 Feb 13:27:32 13:31:57 36° 97° (E) 13:36:24 437.505
TISAT 1 28 Feb 13:27:38 13:31:20 29° 288° (WNW) 13:34:56 437.305
BEESAT 28 Feb 13:36:35 13:41:07 42° 98° (E) 13:45:40 436.000
AO-7 28 Feb 13:43:23 13:47:01 14° 54° (NE) 13:51:12 29.400- 29.500
Gurwin Techsat 1B 28 Feb 13:48:12 13:53:12 45° 73° (ENE) 13:58:17 435.225
HORYU 2 28 Feb 13:54:29 13:55:22 11° 66° (ENE) 13:56:31 437.375
ITUPSAT 1 28 Feb 14:02:03 14:06:54 79° 101° (ESE) 14:11:44 437.325
KKS-1 28 Feb 14:30:27 14:34:13 27° 96° (E) 14:38:02 437.445
ITAMSAT 1 28 Feb 14:31:11 14:36:12 48° 261° (W) 14:41:16 435.822/435.867
Oscar 19 28 Feb 14:42:11 14:44:19 12° 270° (W) 14:46:07 437.125/150
STARS 28 Feb 14:43:00 14:46:30 24° 95° (E) 14:50:05 437.465
YUBILEINY 28 Feb 14:51:39 14:54:00 12° 79° (E) 14:57:11 435.215
SWISSCUBE 28 Feb 15:06:02 15:09:37 20° 291° (WNW) 15:13:02 437.505
BEESAT 28 Feb 15:15:25 15:18:41 18° 292° (WNW) 15:21:47 436.000
HORYU 2 28 Feb 15:27:11 15:31:35 62° 259° (W) 15:35:58 437.375
Gurwin Techsat 1B 28 Feb 15:29:42 15:33:28 19° 268° (W) 15:37:01 435.225
AO-7 28 Feb 15:30:21 15:38:38 74° 71° (ENE) 15:46:58 29.400- 29.500
M-CUBED/EXP-1 PRIME 28 Feb 16:00:51 16:03:47 18° 99° (E) 16:06:59 437.505
AUBIESAT-1 28 Feb 16:05:00 16:07:55 18° 99° (E) 16:11:06 437.475
KKS-1 28 Feb 16:07:16 16:10:45 22° 290° (WNW) 16:14:07 437.445
JAS-2 28 Feb 16:13:27 16:18:45 84° 78° (ENE) 16:24:39 435.910
STARS 28 Feb 16:19:19 16:22:56 25° 289° (WNW) 16:26:27 437.465
ISS 28 Feb 16:40:33 16:43:35 36° 37° (NE) 16:46:39 145.825
YUBILEINY 28 Feb 16:40:57 16:49:38 79° 95° (E) 16:58:27 435.215
BEESAT 2 28 Feb 16:50:55 16:52:17 12° 109° (ESE) 16:53:54 435.950
MOZHAYETS 4 28 Feb 16:59:45 17:04:20 58° 100° (E) 17:08:55
AO-7 28 Feb 17:26:13 17:32:14 20° 268° (W) 17:37:49 29.400- 29.500
VERMONT LUNAR 28 Feb 17:28:01 17:30:47 23° 146° (SE) 17:33:38 437.305
M-CUBED/EXP-1 PRIME 28 Feb 17:34:52 17:38:45 36° 291° (WNW) 17:42:52 437.505
Cubesat XI-IV 28 Feb 17:38:44 17:43:55 54° 74° (ENE) 17:49:11 437.490
AUBIESAT-1 28 Feb 17:38:56 17:42:50 36° 291° (WNW) 17:46:57 437.475
CUTE-I 28 Feb 17:48:20 17:53:37 66° 75° (ENE) 17:58:59 437.470
STRAND 1 28 Feb 18:02:41 18:03:41 11° 89° (E) 18:05:04 437.568
BEESAT 3 28 Feb 18:03:09 18:07:14 77° 299° (WNW) 18:11:23 437.485
AIST 2 28 Feb 18:10:12 18:14:03 36° 114° (ESE) 18:18:01 435.215
ISS 28 Feb 18:17:40 18:19:50 16° 231° (SW) 18:21:55 145.825
BEESAT 2 28 Feb 18:26:05 18:30:05 49° 302° (WNW) 18:34:08 435.950
AIST 1 28 Feb 18:38:04 18:42:19 45° 80° (E) 18:46:32
MOZHAYETS 4 28 Feb 18:39:09 18:41:08 12° 293° (WNW) 18:42:53
YUBILEINY 28 Feb 18:41:39 18:47:38 19° 295° (WNW) 18:53:09 435.215
CUBESAT XI-V 28 Feb 18:51:52 18:56:34 68° 100° (E) 19:01:15 437.345
PHONESAT 2.4 28 Feb 18:51:52 18:55:24 50° 151° (SSE) 18:58:56 2401.200-2431.200
